Time,TemperatureF,DewpointF,PressureIn,WindDirection,WindDirectionDegrees,WindSpeedMPH,WindSpeedGustMPH,Humidity,HourlyPrecipIn,Conditions,Clouds,dailyrainin,SoftwareType,DateUTC
2013-04-03 00:02:00,68.0,39.0,29.87,SE,145,1.0,1.0,35,0.00,,,0.00,,2013-04-03 07:02:00,
2013-04-03 00:11:00,68.0,39.0,29.87,SE,145,1.0,1.0,35,0.00,,,0.00,,2013-04-03 07:11:00,
2013-04-03 00:22:00,69.0,39.0,29.87,SSW,209,0.0,1.0,34,0.00,,,0.00,,2013-04-03 07:22:00,
2013-04-03 00:32:00,68.0,39.0,29.87,SE,138,1.0,1.0,34,0.00,,,0.00,,2013-04-03 07:32:00,
2013-04-03 00:42:00,68.0,39.0,29.87,SE,138,1.0,1.0,34,0.00,,,0.00,,2013-04-03 07:42:00,
2013-04-03 00:52:00,67.0,38.0,29.88,WSW,237,1.0,3.0,34,0.00,,,0.00,,2013-04-03 07:52:00,
2013-04-03 01:02:00,66.0,38.0,29.87,SSE,155,0.0,1.0,35,0.00,,,0.00,,2013-04-03 08:02:00,
2013-04-03 01:11:00,66.0,38.0,29.87,SSE,155,0.0,1.0,35,0.00,,,0.00,,2013-04-03 08:11:00,
2013-04-03 01:22:00,66.0,38.0,29.88,SSE,151,0.0,1.0,36,0.00,,,0.00,,2013-04-03 08:22:00,
2013-04-03 01:32:00,65.0,38.0,29.88,SE,146,0.0,1.0,37,0.00,,,0.00,,2013-04-03 08:32:00,
2013-04-03 01:42:00,65.0,38.0,29.88,SE,146,0.0,1.0,37,0.00,,,0.00,,2013-04-03 08:42:00,
2013-04-03 01:51:00,65.0,38.0,29.87,SE,136,1.0,2.0,37,0.00,,,0.00,,2013-04-03 08:51:00,
2013-04-03 02:02:00,66.0,37.0,29.87,SSE,153,0.0,1.0,34,0.00,,,0.00,,2013-04-03 09:02:00,
2013-04-03 02:11:00,66.0,37.0,29.87,SSE,153,0.0,1.0,34,0.00,,,0.00,,2013-04-03 09:11:00,
2013-04-03 02:21:00,65.0,37.0,29.87,SSE,165,1.0,1.0,35,0.00,,,0.00,,2013-04-03 09:21:00,
2013-04-03 02:32:00,66.0,37.0,29.87,SSE,149,1.0,3.0,34,0.00,,,0.00,,2013-04-03 09:32:00,
2013-04-03 02:42:00,66.0,37.0,29.87,SSE,149,1.0,3.0,34,0.00,,,0.00,,2013-04-03 09:42:00,
2013-04-03 02:52:00,66.0,37.0,29.87,SSE,151,1.0,2.0,34,0.00,,,0.00,,2013-04-03 09:52:00,
2013-04-03 03:02:00,66.0,37.0,29.87,SSE,160,1.0,2.0,34,0.00,,,0.00,,2013-04-03 10:02:00,
2013-04-03 03:12:00,66.0,37.0,29.87,SSE,160,1.0,2.0,34,0.00,,,0.00,,2013-04-03 10:12:00,
2013-04-03 03:22:00,66.0,38.0,29.87,SSE,161,1.0,2.0,35,0.00,,,0.00,,2013-04-03 10:22:00,
2013-04-03 03:33:00,66.0,38.0,29.87,SSE,159,1.0,3.0,35,0.00,,,0.00,,2013-04-03 10:33:00,
2013-04-03 03:42:00,66.0,38.0,29.87,SSE,159,1.0,3.0,35,0.00,,,0.00,,2013-04-03 10:42:00,
2013-04-03 03:52:00,65.0,37.0,29.87,SSE,153,1.0,2.0,36,0.00,,,0.00,,2013-04-03 10:52:00,
2013-04-03 04:02:00,65.0,38.0,29.88,South,175,1.0,3.0,37,0.00,,,0.00,,2013-04-03 11:02:00,
2013-04-03 04:12:00,65.0,38.0,29.88,South,175,1.0,3.0,37,0.00,,,0.00,,2013-04-03 11:12:00,
2013-04-03 04:22:00,66.0,39.0,29.88,South,184,2.0,3.0,37,0.00,,,0.00,,2013-04-03 11:22:00,
2013-04-03 04:32:00,65.0,39.0,29.88,SW,218,2.0,3.0,38,0.00,,,0.00,,2013-04-03 11:32:00,
2013-04-03 04:41:00,65.0,39.0,29.88,SW,218,2.0,3.0,38,0.00,,,0.00,,2013-04-03 11:41:00,
2013-04-03 04:52:00,65.0,39.0,29.88,SSE,153,1.0,2.0,39,0.00,,,0.00,,2013-04-03 11:52:00,
2013-04-03 05:01:00,62.0,39.0,29.89,SSE,153,0.0,0.0,42,0.00,,,0.00,,2013-04-03 12:01:00,
2013-04-03 05:11:00,62.0,39.0,29.89,SSE,153,0.0,0.0,42,0.00,,,0.00,,2013-04-03 12:11:00,
2013-04-03 05:22:00,61.0,38.0,29.89,SSE,154,0.0,0.0,43,0.00,,,0.00,,2013-04-03 12:22:00,
2013-04-03 05:32:00,61.0,40.0,29.89,SSE,156,0.0,1.0,45,0.00,,,0.00,,2013-04-03 12:32:00,
2013-04-03 05:41:00,61.0,40.0,29.89,SSE,156,0.0,1.0,45,0.00,,,0.00,,2013-04-03 12:41:00,
2013-04-03 05:52:00,61.0,40.0,29.89,SSE,156,0.0,1.0,45,0.00,,,0.00,,2013-04-03 12:52:00,
2013-04-03 06:02:00,61.0,40.0,29.89,SE,145,2.0,2.0,45,0.00,,,0.00,,2013-04-03 13:02:00,
2013-04-03 06:12:00,61.0,40.0,29.89,SE,145,2.0,2.0,45,0.00,,,0.00,,2013-04-03 13:12:00,
2013-04-03 06:21:00,62.0,40.0,29.90,SSE,149,1.0,1.0,45,0.00,,,0.00,,2013-04-03 13:21:00,
2013-04-03 06:32:00,61.0,40.0,29.90,SSE,149,0.0,1.0,46,0.00,,,0.00,,2013-04-03 13:32:00,
2013-04-03 06:41:00,61.0,40.0,29.90,SSE,149,0.0,1.0,46,0.00,,,0.00,,2013-04-03 13:41:00,
2013-04-03 06:52:00,61.0,41.0,29.91,SSE,149,0.0,0.0,47,0.00,,,0.00,,2013-04-03 13:52:00,
2013-04-03 07:02:00,61.0,40.0,29.91,WSW,238,0.0,0.0,46,0.00,,,0.00,,2013-04-03 14:02:00,
2013-04-03 07:11:00,61.0,40.0,29.91,WSW,238,0.0,0.0,46,0.00,,,0.00,,2013-04-03 14:11:00,
2013-04-03 07:21:00,63.0,40.0,29.92,WSW,238,0.0,0.0,43,0.00,,,0.00,,2013-04-03 14:21:00,
2013-04-03 07:32:00,63.0,40.0,29.93,WSW,240,0.0,1.0,43,0.00,,,0.00,,2013-04-03 14:32:00,
2013-04-03 07:42:00,63.0,40.0,29.93,WSW,240,0.0,1.0,43,0.00,,,0.00,,2013-04-03 14:42:00,
2013-04-03 07:51:00,66.0,42.0,29.93,SE,130,1.0,1.0,41,0.00,,,0.00,,2013-04-03 14:51:00,
2013-04-03 08:02:00,68.0,43.0,29.94,ESE,123,0.0,2.0,40,0.00,,,0.00,,2013-04-03 15:02:00,
2013-04-03 08:12:00,68.0,43.0,29.94,ESE,123,0.0,2.0,40,0.00,,,0.00,,2013-04-03 15:12:00,
2013-04-03 08:22:00,70.0,43.0,29.94,ESE,123,0.0,1.0,37,0.00,,,0.00,,2013-04-03 15:22:00,
2013-04-03 08:33:00,71.0,43.0,29.95,WSW,253,1.0,2.0,36,0.00,,,0.00,,2013-04-03 15:33:00,
2013-04-03 08:42:00,71.0,43.0,29.95,WSW,253,1.0,2.0,36,0.00,,,0.00,,2013-04-03 15:42:00,
2013-04-03 08:53:00,71.0,43.0,29.95,West,276,1.0,2.0,36,0.00,,,0.00,,2013-04-03 15:53:00,
2013-04-03 09:02:00,73.0,40.0,29.94,NE,44,3.0,3.0,30,0.00,,,0.00,,2013-04-03 16:02:00,
2013-04-03 09:12:00,73.0,40.0,29.94,NE,44,3.0,3.0,30,0.00,,,0.00,,2013-04-03 16:12:00,
2013-04-03 09:22:00,74.0,39.0,29.94,NE,49,2.0,3.0,28,0.00,,,0.00,,2013-04-03 16:22:00,
2013-04-03 09:32:00,76.0,41.0,29.94,NNW,340,3.0,5.0,28,0.00,,,0.00,,2013-04-03 16:32:00,
2013-04-03 09:42:00,76.0,41.0,29.94,NNW,340,3.0,5.0,28,0.00,,,0.00,,2013-04-03 16:42:00,
2013-04-03 09:52:00,76.0,41.0,29.95,North,3,2.0,6.0,29,0.00,,,0.00,,2013-04-03 16:52:00,
2013-04-03 10:02:00,78.0,41.0,29.95,ENE,68,2.0,3.0,27,0.00,,,0.00,,2013-04-03 17:02:00,
2013-04-03 10:12:00,78.0,41.0,29.95,ENE,68,2.0,3.0,27,0.00,,,0.00,,2013-04-03 17:12:00,
2013-04-03 10:22:00,79.0,42.0,29.95,NE,38,1.0,5.0,27,0.00,,,0.00,,2013-04-03 17:22:00,
2013-04-03 10:32:00,82.0,38.0,29.95,NNE,19,3.0,5.0,21,0.00,,,0.00,,2013-04-03 17:32:00,
2013-04-03 10:45:00,82.0,38.0,29.95,NNE,19,3.0,5.0,21,0.00,,,0.00,,2013-04-03 17:45:00,
2013-04-03 10:52:00,83.0,38.0,29.95,NW,307,3.0,7.0,20,0.00,,,0.00,,2013-04-03 17:52:00,
2013-04-03 11:02:00,85.0,37.0,29.94,NNW,346,4.0,9.0,18,0.00,,,0.00,,2013-04-03 18:02:00,
2013-04-03 11:12:00,85.0,37.0,29.94,NNW,346,4.0,9.0,18,0.00,,,0.00,,2013-04-03 18:12:00,
2013-04-03 11:21:00,85.0,37.0,29.94,NNW,334,3.0,8.0,18,0.00,,,0.00,,2013-04-03 18:21:00,
2013-04-03 11:33:00,87.0,37.0,29.93,NNW,344,2.0,6.0,17,0.00,,,0.00,,2013-04-03 18:33:00,
2013-04-03 11:42:00,87.0,37.0,29.93,NNW,344,2.0,6.0,17,0.00,,,0.00,,2013-04-03 18:42:00,
2013-04-03 11:52:00,88.0,36.0,29.93,NE,45,2.0,5.0,16,0.00,,,0.00,,2013-04-03 18:52:00,
2013-04-03 12:02:00,88.0,35.0,29.93,NNW,345,3.0,5.0,15,0.00,,,0.00,,2013-04-03 19:02:00,
2013-04-03 12:11:00,88.0,35.0,29.93,NNW,345,3.0,5.0,15,0.00,,,0.00,,2013-04-03 19:11:00,
2013-04-03 12:21:00,89.0,34.0,29.93,NE,54,3.0,5.0,14,0.00,,,0.00,,2013-04-03 19:21:00,
2013-04-03 12:32:00,89.0,34.0,29.92,NW,313,5.0,10.0,14,0.00,,,0.00,,2013-04-03 19:32:00,
2013-04-03 12:42:00,89.0,34.0,29.92,NW,313,5.0,10.0,14,0.00,,,0.00,,2013-04-03 19:42:00,
2013-04-03 12:52:00,89.0,34.0,29.92,WSW,246,6.0,12.0,14,0.00,,,0.00,,2013-04-03 19:52:00,
2013-04-03 13:02:00,89.0,34.0,29.92,West,276,5.0,12.0,14,0.00,,,0.00,,2013-04-03 20:02:00,
2013-04-03 13:12:00,89.0,34.0,29.92,West,276,5.0,12.0,14,0.00,,,0.00,,2013-04-03 20:12:00,
2013-04-03 13:22:00,90.0,34.0,29.92,NW,304,6.0,12.0,14,0.00,,,0.00,,2013-04-03 20:22:00,
2013-04-03 13:32:00,90.0,34.0,29.91,NNW,329,5.0,12.0,14,0.00,,,0.00,,2013-04-03 20:32:00,
2013-04-03 13:42:00,90.0,34.0,29.91,NNW,329,5.0,12.0,14,0.00,,,0.00,,2013-04-03 20:42:00,
2013-04-03 13:52:00,90.0,34.0,29.91,North,11,9.0,14.0,14,0.00,,,0.00,,2013-04-03 20:52:00,
2013-04-03 14:02:00,91.0,33.0,29.89,NNW,327,8.0,12.0,13,0.00,,,0.00,,2013-04-03 21:02:00,
2013-04-03 14:12:00,91.0,33.0,29.89,NNW,327,8.0,12.0,13,0.00,,,0.00,,2013-04-03 21:12:00,
2013-04-03 14:22:00,91.0,33.0,29.89,NW,316,5.0,12.0,13,0.00,,,0.00,,2013-04-03 21:22:00,
2013-04-03 14:32:00,91.0,33.0,29.88,NW,307,5.0,10.0,13,0.00,,,0.00,,2013-04-03 21:32:00,
2013-04-03 14:42:00,91.0,33.0,29.88,NW,307,5.0,10.0,13,0.00,,,0.00,,2013-04-03 21:42:00,
2013-04-03 14:52:00,91.0,35.0,29.87,WNW,295,5.0,10.0,14,0.00,,,0.00,,2013-04-03 21:52:00,
2013-04-03 15:02:00,91.0,33.0,29.87,WNW,286,3.0,12.0,13,0.00,,,0.00,,2013-04-03 22:02:00,
2013-04-03 15:12:00,91.0,33.0,29.87,WNW,286,3.0,12.0,13,0.00,,,0.00,,2013-04-03 22:12:00,
2013-04-03 15:22:00,92.0,36.0,29.86,NW,323,8.0,13.0,14,0.00,,,0.00,,2013-04-03 22:22:00,
2013-04-03 15:32:00,92.0,32.0,29.85,NNW,341,7.0,12.0,12,0.00,,,0.00,,2013-04-03 22:32:00,
2013-04-03 15:42:00,92.0,32.0,29.85,NNW,341,7.0,12.0,12,0.00,,,0.00,,2013-04-03 22:42:00,
2013-04-03 15:52:00,92.0,32.0,29.85,WNW,287,7.0,14.0,12,0.00,,,0.00,,2013-04-03 22:52:00,
2013-04-03 16:02:00,92.0,32.0,29.84,NNW,341,9.0,13.0,12,0.00,,,0.00,,2013-04-03 23:02:00,
2013-04-03 16:11:00,92.0,32.0,29.84,NNW,341,9.0,13.0,12,0.00,,,0.00,,2013-04-03 23:11:00,
2013-04-03 16:21:00,92.0,32.0,29.84,WNW,294,7.0,14.0,12,0.00,,,0.00,,2013-04-03 23:21:00,
2013-04-03 16:32:00,92.0,34.0,29.84,NNW,348,6.0,12.0,13,0.00,,,0.00,,2013-04-03 23:32:00,
2013-04-03 16:42:00,92.0,34.0,29.84,NNW,348,6.0,12.0,13,0.00,,,0.00,,2013-04-03 23:42:00,
2013-04-03 16:52:00,92.0,32.0,29.84,NNW,337,3.0,13.0,12,0.00,,,0.00,,2013-04-03 23:52:00,
2013-04-03 17:02:00,92.0,32.0,29.84,WNW,288,4.0,12.0,12,0.00,,,0.00,,2013-04-04 00:02:00,
2013-04-03 17:11:00,92.0,32.0,29.84,WNW,288,4.0,12.0,12,0.00,,,0.00,,2013-04-04 00:11:00,
2013-04-03 17:22:00,92.0,32.0,29.84,NW,309,6.0,12.0,12,0.00,,,0.00,,2013-04-04 00:22:00,
2013-04-03 17:32:00,92.0,32.0,29.84,NW,317,6.0,10.0,12,0.00,,,0.00,,2013-04-04 00:32:00,
2013-04-03 17:42:00,92.0,32.0,29.84,NW,317,6.0,10.0,12,0.00,,,0.00,,2013-04-04 00:42:00,
2013-04-03 17:52:00,92.0,38.0,29.84,NW,315,4.0,10.0,15,0.00,,,0.00,,2013-04-04 00:52:00,
2013-04-03 18:02:00,91.0,35.0,29.84,NW,315,5.0,10.0,14,0.00,,,0.00,,2013-04-04 01:02:00,
2013-04-03 18:11:00,91.0,35.0,29.84,NW,315,5.0,10.0,14,0.00,,,0.00,,2013-04-04 01:11:00,
2013-04-03 18:22:00,90.0,36.0,29.84,NW,315,5.0,10.0,15,0.00,,,0.00,,2013-04-04 01:22:00,
2013-04-03 18:32:00,89.0,41.0,29.84,West,275,7.0,12.0,19,0.00,,,0.00,,2013-04-04 01:32:00,
2013-04-03 18:42:00,89.0,41.0,29.84,West,275,7.0,12.0,19,0.00,,,0.00,,2013-04-04 01:42:00,
2013-04-03 18:52:00,88.0,42.0,29.85,West,275,7.0,12.0,20,0.00,,,0.00,,2013-04-04 01:52:00,
2013-04-03 19:02:00,86.0,41.0,29.85,West,276,6.0,12.0,21,0.00,,,0.00,,2013-04-04 02:02:00,
2013-04-03 19:11:00,86.0,41.0,29.85,West,276,6.0,12.0,21,0.00,,,0.00,,2013-04-04 02:11:00,
2013-04-03 19:22:00,86.0,41.0,29.85,WSW,253,5.0,12.0,21,0.00,,,0.00,,2013-04-04 02:22:00,
2013-04-03 19:32:00,85.0,42.0,29.85,West,262,3.0,7.0,22,0.00,,,0.00,,2013-04-04 02:32:00,
2013-04-03 19:42:00,85.0,42.0,29.85,West,262,3.0,7.0,22,0.00,,,0.00,,2013-04-04 02:42:00,
2013-04-03 19:52:00,85.0,42.0,29.85,West,262,3.0,7.0,22,0.00,,,0.00,,2013-04-04 02:52:00,
2013-04-03 20:02:00,83.0,40.0,29.85,WSW,253,2.0,5.0,22,0.00,,,0.00,,2013-04-04 03:02:00,
2013-04-03 20:11:00,83.0,40.0,29.85,WSW,253,2.0,5.0,22,0.00,,,0.00,,2013-04-04 03:11:00,
2013-04-03 20:22:00,83.0,41.0,29.85,WSW,249,2.0,3.0,23,0.00,,,0.00,,2013-04-04 03:22:00,
2013-04-03 20:33:00,81.0,41.0,29.86,WSW,252,3.0,3.0,24,0.00,,,0.00,,2013-04-04 03:33:00,
2013-04-03 20:43:00,81.0,41.0,29.86,WSW,252,3.0,3.0,24,0.00,,,0.00,,2013-04-04 03:43:00,
2013-04-03 20:53:00,81.0,41.0,29.87,WSW,237,2.0,3.0,24,0.00,,,0.00,,2013-04-04 03:53:00,
2013-04-03 21:02:00,80.0,40.0,29.87,WSW,249,2.0,3.0,24,0.00,,,0.00,,2013-04-04 04:02:00,
2013-04-03 21:12:00,80.0,40.0,29.87,WSW,249,2.0,3.0,24,0.00,,,0.00,,2013-04-04 04:12:00,
2013-04-03 21:22:00,80.0,40.0,29.87,SW,223,2.0,3.0,24,0.00,,,0.00,,2013-04-04 04:22:00,
2013-04-03 21:33:00,79.0,41.0,29.88,SW,233,1.0,1.0,26,0.00,,,0.00,,2013-04-04 04:33:00,
2013-04-03 21:42:00,79.0,41.0,29.88,SW,233,1.0,1.0,26,0.00,,,0.00,,2013-04-04 04:42:00,
2013-04-03 21:52:00,78.0,41.0,29.88,SW,233,0.0,1.0,27,0.00,,,0.00,,2013-04-04 04:52:00,
2013-04-03 22:02:00,76.0,41.0,29.88,SSE,162,0.0,0.0,28,0.00,,,0.00,,2013-04-04 05:02:00,
2013-04-03 22:12:00,76.0,41.0,29.88,SSE,162,0.0,0.0,28,0.00,,,0.00,,2013-04-04 05:12:00,
2013-04-03 22:22:00,75.0,41.0,29.89,SSE,161,0.0,0.0,29,0.00,,,0.00,,2013-04-04 05:22:00,
2013-04-03 22:32:00,74.0,40.0,29.89,ENE,78,0.0,2.0,29,0.00,,,0.00,,2013-04-04 05:32:00,
2013-04-03 22:42:00,74.0,40.0,29.89,ENE,78,0.0,2.0,29,0.00,,,0.00,,2013-04-04 05:42:00,
2013-04-03 22:52:00,74.0,41.0,29.89,ESE,111,0.0,1.0,30,0.00,,,0.00,,2013-04-04 05:52:00,
2013-04-03 23:02:00,73.0,41.0,29.89,SE,136,1.0,1.0,31,0.00,,,0.00,,2013-04-04 06:02:00,
2013-04-03 23:11:00,73.0,41.0,29.89,SE,136,1.0,1.0,31,0.00,,,0.00,,2013-04-04 06:11:00,
2013-04-03 23:21:00,73.0,41.0,29.89,SSE,163,0.0,2.0,31,0.00,,,0.00,,2013-04-04 06:21:00,
2013-04-03 23:32:00,73.0,41.0,29.89,SSE,153,0.0,0.0,32,0.00,,,0.00,,2013-04-04 06:32:00,
2013-04-03 23:42:00,73.0,41.0,29.89,SSE,153,0.0,0.0,32,0.00,,,0.00,,2013-04-04 06:42:00,
2013-04-03 23:52:00,72.0,41.0,29.89,SSE,153,0.0,1.0,32,0.00,,,0.00,,2013-04-04 06:52:00,